Location: Kaiser
(34.0939°N, 117.4889°W)
Time: 02:49:56
(UTC+00:00)

GOES 2 Rocket - Pass Details

Date: 29 October 2020
Orbit: 569 x 1674 km, 28.4° (Epoch: 26 November)

Event Time Altitude Azimuth Distance (km) Brightness Sun altitude
Exits shadow 12:16:02 40° 213° (SSW) 1,155 4.1 -23.6°
Maximum altitude 12:17:21 48° 173° (S) 1,073 4.2 -23.3°
Drops below altitude 10° 12:23:41 10° 101° (ESE) 2,810 7.5 -22.0°
Sets 12:26:54 0° 97° (E) 3,962 8.7 -21.3°
